TimeEST,TemperatureF,Dew PointF,Humidity,Sea Level PressureIn,VisibilityMPH,Wind Direction,Wind SpeedMPH,Gust SpeedMPH,PrecipitationIn,Events,Conditions,WindDirDegrees,DateUTC
12:17 AM,42.8,35.6,76,29.62,10.0,West,6.9,-,N/A,,Overcast,280,2012-12-11 05:17:00
12:52 AM,42.1,35.1,76,29.65,10.0,West,9.2,-,N/A,,Overcast,280,2012-12-11 05:52:00
1:00 AM,42.8,35.6,76,29.63,10.0,West,8.1,-,N/A,,Overcast,280,2012-12-11 06:00:00
1:52 AM,39.0,35.1,86,29.67,5.0,WSW,9.2,-,0.02,Rain,Light Rain,250,2012-12-11 06:52:00
2:24 AM,37.4,35.6,93,29.68,10.0,West,8.1,-,0.01,Rain,Light Rain,260,2012-12-11 07:24:00
2:52 AM,37.9,34.0,86,29.70,10.0,West,8.1,-,0.02,Rain,Light Rain,280,2012-12-11 07:52:00
3:52 AM,37.9,34.0,86,29.73,10.0,West,9.2,-,0.00,,Overcast,260,2012-12-11 08:52:00
4:52 AM,37.9,33.1,83,29.72,10.0,West,8.1,-,0.01,,Overcast,260,2012-12-11 09:52:00
5:52 AM,37.9,33.1,83,29.76,10.0,West,9.2,-,N/A,,Overcast,260,2012-12-11 10:52:00
7:52 AM,36.0,27.0,70,29.86,10.0,West,5.8,-,N/A,,Overcast,270,2012-12-11 12:52:00
8:52 AM,36.0,25.0,64,29.89,10.0,NW,10.4,16.1,N/A,,Overcast,320,2012-12-11 13:52:00
9:29 AM,35.6,24.8,65,29.89,10.0,NW,10.4,17.3,N/A,,Overcast,320,2012-12-11 14:29:00
9:52 AM,36.0,23.0,59,29.91,10.0,Variable,5.8,-,N/A,,Overcast,0,2012-12-11 14:52:00
10:52 AM,36.0,23.0,59,29.92,10.0,WNW,10.4,-,N/A,,Overcast,290,2012-12-11 15:52:00
11:52 AM,37.9,23.0,55,29.91,10.0,WNW,12.7,21.9,N/A,,Overcast,290,2012-12-11 16:52:00
12:52 PM,39.0,21.9,50,29.93,10.0,WNW,9.2,18.4,N/A,,Partly Cloudy,300,2012-12-11 17:52:00
2:52 PM,35.1,19.0,52,29.99,10.0,WNW,9.2,23.0,N/A,,Overcast,300,2012-12-11 19:52:00
3:52 PM,35.1,18.0,50,30.02,10.0,West,10.4,20.7,N/A,,Overcast,280,2012-12-11 20:52:00
4:52 PM,34.0,19.0,54,30.04,10.0,West,11.5,19.6,N/A,,Mostly Cloudy,280,2012-12-11 21:52:00
5:52 PM,33.1,17.1,52,30.07,10.0,West,13.8,23.0,N/A,,Scattered Clouds,280,2012-12-11 22:52:00
6:52 PM,32.0,17.1,54,30.09,10.0,WNW,6.9,16.1,N/A,,Mostly Cloudy,300,2012-12-11 23:52:00
7:52 PM,30.9,16.0,54,30.12,10.0,West,11.5,-,N/A,,Clear,270,2012-12-12 00:52:00
8:52 PM,28.9,17.1,61,30.13,10.0,West,10.4,-,N/A,,Clear,270,2012-12-12 01:52:00
9:52 PM,28.9,17.1,61,30.16,10.0,West,10.4,-,N/A,,Partly Cloudy,270,2012-12-12 02:52:00
10:52 PM,28.9,17.1,61,30.18,10.0,West,11.5,-,N/A,,Scattered Clouds,270,2012-12-12 03:52:00
11:52 PM,28.9,17.1,61,30.19,10.0,West,11.5,-,N/A,,Clear,270,2012-12-12 04:52:00